| time (UTC) | temp F | wind direction | speed knots | gust knots | rain 1hr in | rain 24hr in | rain mn in | humidity % | barometer mb |
| 20260510121300 | 0 | 359 | 0.9 | 5.2 | 5.64 | 0.00 | 0.00 | 83 | 1025.5 |
| 20260510120800 | 0 | 0 | 0.0 | 0.0 | 5.64 | 0.00 | 0.00 | 83 | 1025.5 |
| 20260510120300 | 0 | 0 | 0.0 | 0.0 | 5.64 | 0.00 | 0.00 | 85 | 1025.4 |
| 20260510115800 | 0 | 359 | 0.0 | 0.9 | 5.64 | 0.00 | 0.00 | 85 | 1025.3 |
| 20260510115300 | 0 | 0 | 0.0 | 0.0 | 5.64 | 0.00 | 0.00 | 86 | 1025.0 |
| 20260510114800 | 0 | 0 | 0.0 | 0.0 | 5.64 | 0.00 | 0.00 | 86 | 1025.2 |
| 20260510114300 | 0 | 0 | 0.0 | 0.0 | 5.64 | 0.00 | 0.00 | 85 | 1024.9 |
| 20260510113801 | 0 | 359 | 0.0 | 2.6 | 5.64 | 0.00 | 0.00 | 87 | 1024.8 |
| 20260510113300 | 0 | 0 | 0.0 | 0.0 | 5.64 | 0.00 | 0.00 | 88 | 1024.8 |
| 20260510112802 | 0 | 0 | 0.0 | 0.0 | 5.64 | 0.00 | 0.00 | 88 | 1024.7 |
| 20260510112300 | 0 | 0 | 0.0 | 0.0 | 5.64 | 0.00 | 0.00 | 88 | 1024.6 |
| 20260510111800 | 0 | 0 | 0.0 | 0.0 | 5.64 | 0.00 | 0.00 | 89 | 1024.5 |
| 20260510111301 | 0 | 0 | 0.0 | 0.0 | 5.64 | 0.00 | 0.00 | 89 | 1024.5 |
| 20260510110800 | 0 | 357 | 0.0 | 2.6 | 5.64 | 0.00 | 0.00 | 89 | 1024.5 |
| 20260510110300 | 0 | 0 | 0.0 | 0.0 | 5.64 | 0.00 | 0.00 | 89 | 1024.3 |
| 20260510105800 | 0 | 0 | 0.0 | 0.0 | 5.64 | 0.00 | 0.00 | 89 | 1024.2 |
| 20260510105300 | 0 | 0 | 0.0 | 0.0 | 5.64 | 0.00 | 0.00 | 89 | 1024.2 |
| 20260510104800 | 0 | 0 | 0.0 | 0.0 | 5.64 | 0.00 | 0.00 | 89 | 1024.1 |
| 20260510104300 | 0 | 0 | 0.0 | 0.0 | 5.64 | 0.00 | 0.00 | 89 | 1024.0 |
| 20260510103800 | 0 | 0 | 0.0 | 0.0 | 5.64 | 0.00 | 0.00 | 87 | 1023.9 |
| 20260510103300 | 0 | 0 | 0.0 | 0.0 | 5.64 | 0.00 | 0.00 | 88 | 1023.7 |
| 20260510102800 | 0 | 0 | 0.0 | 0.0 | 5.64 | 0.00 | 0.00 | 88 | 1023.6 |
| 20260510102300 | 0 | 0 | 0.0 | 0.0 | 5.64 | 0.00 | 0.00 | 88 | 1023.5 |
| 20260510101800 | 0 | 0 | 0.0 | 0.0 | 5.64 | 0.00 | 0.00 | 88 | 1023.5 |
| 20260510101300 | 0 | 0 | 0.0 | 0.0 | 5.64 | 0.00 | 0.00 | 88 | 1023.4 |
| 20260510100800 | 0 | 0 | 0.0 | 0.0 | 5.64 | 0.00 | 0.00 | 88 | 1023.1 |
| 20260510100300 | 0 | 0 | 0.0 | 0.0 | 5.64 | 0.00 | 0.00 | 88 | 1023.0 |
| 20260510095800 | 0 | 0 | 0.0 | 0.0 | 5.64 | 0.00 | 0.00 | 88 | 1022.9 |
| 20260510095300 | 0 | 0 | 0.0 | 0.0 | 5.64 | 0.00 | 0.00 | 88 | 1022.8 |
| 20260510094801 | 0 | 0 | 0.0 | 0.0 | 5.64 | 0.00 | 0.00 | 89 | 1022.6 |
| 20260510094635 | 0 | 0 | 0.0 | 0.0 | 5.64 | 0.00 | 0.00 | 90 | 1022.5 |
| 20260510094510 | 0 | 0 | 0.0 | 0.0 | 5.64 | 0.00 | 0.00 | 90 | 1022.5 |
| 20260510094438 | 0 | 0 | 0.0 | 0.0 | 5.64 | 0.00 | 0.00 | 90 | 1022.5 |
| 20260510094300 | 0 | 0 | 0.0 | 0.0 | 5.64 | 0.00 | 0.00 | 90 | 1022.5 |
| 20260510093800 | 0 | 0 | 0.0 | 0.0 | 5.64 | 0.00 | 0.00 | 90 | 1022.2 |
| 20260510093301 | 0 | 0 | 0.0 | 0.0 | 5.64 | 0.00 | 0.00 | 89 | 1022.1 |
| 20260510092800 | 0 | 0 | 0.0 | 0.0 | 5.64 | 0.00 | 0.00 | 88 | 1022.0 |
| 20260510092300 | 0 | 0 | 0.0 | 0.0 | 5.64 | 0.00 | 0.00 | 88 | 1021.9 |
| 20260510091800 | 0 | 0 | 0.0 | 0.0 | 5.64 | 0.00 | 0.00 | 89 | 1021.8 |
| 20260510091301 | 0 | 0 | 0.0 | 0.0 | 5.64 | 0.00 | 0.00 | 88 | 1021.7 |
| 20260510090800 | 0 | 0 | 0.0 | 0.0 | 5.64 | 0.00 | 0.00 | 88 | 1021.5 |
| 20260510090300 | 0 | 0 | 0.0 | 0.0 | 5.64 | 0.00 | 0.00 | 89 | 1021.4 |
| 20260510085800 | 0 | 0 | 0.0 | 0.0 | 5.64 | 0.00 | 0.00 | 88 | 1021.3 |
| 20260510085300 | 0 | 0 | 0.0 | 0.0 | 5.64 | 0.00 | 0.00 | 87 | 1021.2 |
| 20260510084801 | 0 | 0 | 0.0 | 0.0 | 5.64 | 0.00 | 0.00 | 87 | 1021.1 |
| 20260510084301 | 0 | 0 | 0.0 | 0.0 | 5.64 | 0.00 | 0.00 | 86 | 1021.1 |
| 20260510083800 | 0 | 0 | 0.0 | 0.0 | 5.64 | 0.00 | 0.00 | 84 | 1021.0 |
| 20260510083301 | 0 | 0 | 0.0 | 0.0 | 5.64 | 0.00 | 0.00 | 84 | 1021.0 |
| 20260510082800 | 0 | 0 | 0.0 | 0.0 | 5.64 | 0.00 | 0.00 | 84 | 1021.0 |
| 20260510082300 | 0 | 0 | 0.0 | 0.0 | 5.64 | 0.00 | 0.00 | 84 | 1020.9 |
| 20260510081800 | 0 | 0 | 0.0 | 0.0 | 5.64 | 0.00 | 0.00 | 84 | 1021.0 |
| 20260510081300 | 0 | 0 | 0.0 | 0.0 | 5.64 | 0.00 | 0.00 | 84 | 1020.9 |
| 20260510080800 | 0 | 0 | 0.0 | 0.0 | 5.64 | 0.00 | 0.00 | 83 | 1020.9 |
| 20260510080301 | 0 | 0 | 0.0 | 0.0 | 5.64 | 0.00 | 0.00 | 84 | 1020.9 |
| 20260510075800 | 0 | 0 | 0.0 | 0.0 | 5.64 | 0.00 | 0.00 | 84 | 1020.8 |
| 20260510075300 | 0 | 0 | 0.0 | 0.0 | 5.64 | 0.00 | 0.00 | 84 | 1020.7 |
| 20260510074800 | 0 | 0 | 0.0 | 0.0 | 5.64 | 0.00 | 0.00 | 84 | 1020.7 |
| 20260510074300 | 0 | 0 | 0.0 | 0.0 | 5.64 | 0.00 | 0.00 | 84 | 1020.6 |
| 20260510073801 | 0 | 0 | 0.0 | 0.0 | 5.64 | 0.00 | 0.00 | 83 | 1020.6 |
| 20260510073300 | 0 | 0 | 0.0 | 0.0 | 5.64 | 0.00 | 0.00 | 83 | 1020.5 |
| 20260510072800 | 0 | 0 | 0.0 | 0.0 | 5.64 | 0.00 | 0.00 | 83 | 1020.5 |
| 20260510072300 | 0 | 0 | 0.0 | 0.0 | 5.64 | 0.00 | 0.00 | 83 | 1020.4 |
| 20260510071800 | 0 | 0 | 0.0 | 0.0 | 5.64 | 0.00 | 0.00 | 83 | 1020.5 |
| 20260510071301 | 0 | 0 | 0.0 | 0.0 | 5.64 | 0.00 | 0.00 | 83 | 1020.5 |
| 20260510070801 | 0 | 0 | 0.0 | 0.0 | 5.64 | 0.00 | 0.00 | 82 | 1020.4 |
| 20260510070301 | 0 | 0 | 0.0 | 0.0 | 5.64 | 0.00 | 0.00 | 82 | 1020.4 |
| 20260510065800 | 0 | 0 | 0.0 | 0.0 | 5.64 | 0.00 | 0.00 | 82 | 1020.4 |
| 20260510065301 | 0 | 0 | 0.0 | 0.0 | 5.64 | 0.00 | 0.00 | 82 | 1020.4 |
| 20260510064801 | 0 | 0 | 0.0 | 0.0 | 5.64 | 0.00 | 0.00 | 82 | 1020.3 |
| 20260510064650 | 0 | 0 | 0.0 | 0.0 | 5.64 | 0.00 | 0.00 | 82 | 1020.2 |
| 20260510064510 | 0 | 0 | 0.0 | 0.0 | 5.64 | 0.00 | 0.00 | 82 | 1020.2 |
| 20260510064301 | 0 | 0 | 0.0 | 0.0 | 5.64 | 0.00 | 0.00 | 82 | 1020.2 |
| 20260510063801 | 0 | 0 | 0.0 | 0.0 | 5.64 | 0.00 | 0.00 | 81 | 1020.2 |
| 20260510063301 | 0 | 0 | 0.0 | 0.0 | 5.64 | 0.00 | 0.00 | 81 | 1020.2 |
| 20260510062803 | 0 | 0 | 0.0 | 0.0 | 5.64 | 0.00 | 0.00 | 81 | 1020.2 |
| 20260510062301 | 0 | 0 | 0.0 | 0.0 | 5.64 | 0.00 | 0.00 | 80 | 1020.1 |
| 20260510061801 | 0 | 0 | 0.0 | 0.0 | 5.64 | 0.00 | 0.00 | 80 | 1020.0 |
| 20260510061644 | 0 | 0 | 0.0 | 0.0 | 5.64 | 0.00 | 0.00 | 79 | 1019.9 |
| 20260510061509 | 0 | 0 | 0.0 | 0.0 | 5.64 | 0.00 | 0.00 | 79 | 1019.9 |
| 20260510061301 | 0 | 0 | 0.0 | 0.0 | 5.64 | 0.00 | 0.00 | 79 | 1019.9 |
| 20260510060802 | 0 | 0 | 0.0 | 0.0 | 5.64 | 0.00 | 0.00 | 78 | 1019.8 |
| 20260510060301 | 0 | 0 | 0.0 | 0.0 | 5.64 | 0.00 | 0.00 | 79 | 1019.8 |
| 20260510055801 | 0 | 0 | 0.0 | 0.0 | 5.64 | 0.00 | 0.00 | 79 | 1019.8 |
| 20260510055301 | 0 | 0 | 0.0 | 0.0 | 5.64 | 0.00 | 0.00 | 80 | 1019.6 |
| 20260510054801 | 0 | 0 | 0.0 | 0.0 | 5.64 | 0.00 | 0.00 | 79 | 1019.6 |
| 20260510054301 | 0 | 0 | 0.0 | 0.0 | 5.64 | 0.00 | 0.00 | 80 | 1019.4 |
| 20260510053801 | 0 | 0 | 0.0 | 0.0 | 5.64 | 0.00 | 0.00 | 79 | 1019.3 |
| 20260510053301 | -55 | 0 | 0.0 | 0.0 | 5.64 | 0.00 | 0.00 | 78 | 1019.2 |
| 20260510052801 | -55 | 0 | 0.0 | 0.0 | 5.64 | 0.00 | 0.00 | 78 | 1019.2 |
| 20260510052301 | 0 | 0 | 0.0 | 0.0 | 5.64 | 0.00 | 0.00 | 76 | 1019.2 |
| 20260510051837 | 0 | 0 | 0.0 | 0.0 | 5.64 | 0.00 | 0.00 | 76 | 1019.2 |
| 20260510051801 | 0 | 0 | 0.0 | 0.0 | 5.64 | 0.00 | 0.00 | 76 | 1019.2 |
| 20260510051301 | 0 | 0 | 0.0 | 0.0 | 5.64 | 0.00 | 0.00 | 75 | 1019.0 |
| 20260510050801 | -55 | 0 | 0.0 | 0.0 | 5.64 | 0.00 | 0.00 | 74 | 1018.9 |
| 20260510050301 | -50 | 0 | 0.0 | 0.0 | 5.64 | 0.00 | 0.00 | 74 | 1018.6 |
| 20260510045801 | -50 | 0 | 0.0 | 0.0 | 5.64 | 0.00 | 0.00 | 73 | 1018.6 |
| 20260510045301 | -52 | 0 | 0.0 | 0.0 | 5.64 | 0.00 | 0.00 | 72 | 1018.3 |
| 20260510044801 | -49 | 0 | 0.0 | 0.0 | 5.64 | 0.00 | 0.00 | 71 | 1018.2 |
| 20260510044301 | -33 | 0 | 0.0 | 0.0 | 5.64 | 0.00 | 0.00 | 72 | 1018.2 |
| 20260510043801 | -27 | 0 | 0.0 | 0.0 | 5.64 | 0.00 | 0.00 | 71 | 1018.3 |
| 20260510043301 | -24 | 0 | 0.0 | 0.0 | 5.64 | 0.00 | 0.00 | 72 | 1018.3 |
| 20260510042801 | -35 | 356 | 0.0 | 2.6 | 5.64 | 0.00 | 0.00 | 72 | 1018.1 |
| 20260510042301 | -35 | 0 | 0.0 | 0.0 | 5.64 | 0.00 | 0.00 | 74 | 1018.0 |
| 20260510041801 | -36 | 0 | 0.0 | 0.0 | 5.64 | 0.00 | 0.00 | 74 | 1018.0 |
| 20260510041302 | -33 | 0 | 0.0 | 0.0 | 5.64 | 0.00 | 0.00 | 74 | 1017.7 |
| 20260510040803 | -36 | 0 | 0.0 | 0.0 | 5.64 | 0.00 | 0.00 | 74 | 1018.2 |
| 20260510040301 | -31 | 0 | 0.0 | 0.0 | 5.64 | 0.00 | 0.00 | 74 | 1018.2 |
| 20260510035801 | -34 | 0 | 0.0 | 0.0 | 5.64 | 0.00 | 0.00 | 74 | 1018.1 |
| 20260510035305 | -31 | 0 | 0.0 | 0.0 | 5.64 | 0.00 | 0.00 | 75 | 1018.1 |
| 20260510034801 | -33 | 0 | 0.0 | 0.0 | 5.64 | 0.00 | 0.00 | 74 | 1017.7 |
| 20260510034303 | -34 | 0 | 0.0 | 0.0 | 5.64 | 0.00 | 0.00 | 75 | 1017.6 |
| 20260510033801 | -36 | 0 | 0.0 | 0.0 | 5.64 | 0.00 | 0.00 | 74 | 1017.6 |
| 20260510033301 | -36 | 0 | 0.0 | 0.0 | 5.64 | 0.00 | 0.00 | 74 | 1017.8 |
| 20260510032802 | -35 | 0 | 0.0 | 0.0 | 5.64 | 0.00 | 0.00 | 74 | 1017.5 |
| 20260510032301 | -34 | 0 | 0.0 | 0.0 | 5.64 | 0.00 | 0.00 | 72 | 1017.5 |
| 20260510031801 | -29 | 0 | 0.0 | 0.0 | 5.64 | 0.00 | 0.00 | 72 | 1017.5 |
| 20260510031504 | -31 | 0 | 0.0 | 0.0 | 5.64 | 0.00 | 0.00 | 71 | 1017.4 |
| 20260510031301 | -31 | 0 | 0.0 | 0.0 | 5.64 | 0.00 | 0.00 | 71 | 1017.4 |
| 20260510030801 | -31 | 0 | 0.0 | 0.0 | 5.64 | 0.00 | 0.00 | 71 | 1017.3 |
| 20260510030301 | -22 | 0 | 0.0 | 0.0 | 5.64 | 0.00 | 0.00 | 70 | 1017.2 |
| 20260510025801 | -25 | 0 | 0.0 | 0.0 | 5.64 | 0.00 | 0.00 | 69 | 1016.8 |
| 20260510025301 | -17 | 0 | 0.0 | 0.0 | 5.64 | 0.00 | 0.00 | 70 | 1016.7 |
| 20260510024801 | -14 | 0 | 0.0 | 0.0 | 5.64 | 0.00 | 0.00 | 69 | 1016.5 |
| 20260510024301 | -13 | 0 | 0.0 | 0.0 | 5.64 | 0.00 | 0.00 | 69 | 1016.4 |
| 20260510023802 | 58 | 0 | 0.0 | 0.0 | 5.64 | 0.00 | 0.00 | 72 | 1016.5 |
| 20260510023303 | -23 | 0 | 0.0 | 0.0 | 5.64 | 0.00 | 0.00 | 73 | 1016.4 |
| 20260510022801 | -36 | 0 | 0.0 | 0.0 | 5.64 | 0.00 | 0.00 | 72 | 1016.4 |
| 20260510022306 | -28 | 0 | 0.0 | 0.0 | 5.64 | 0.00 | 0.00 | 69 | 1016.2 |
| 20260510021802 | -28 | 0 | 0.0 | 0.0 | 5.64 | 0.00 | 0.00 | 73 | 1015.9 |
| 20260510021302 | -30 | 0 | 0.0 | 0.0 | 5.64 | 0.00 | 0.00 | 75 | 1015.6 |
| 20260510020801 | -34 | 0 | 0.0 | 0.0 | 5.64 | 0.00 | 0.00 | 79 | 1015.6 |
| 20260510020301 | -25 | 0 | 0.0 | 0.0 | 5.64 | 0.00 | 0.00 | 79 | 1015.8 |
| 20260510015801 | -28 | 0 | 0.0 | 0.0 | 5.64 | 0.00 | 0.00 | 79 | 1015.9 |
| 20260510015301 | -28 | 0 | 0.0 | 0.0 | 5.64 | 0.00 | 0.00 | 80 | 1015.7 |
| 20260510014801 | -20 | 0 | 0.0 | 0.0 | 5.64 | 0.00 | 0.00 | 80 | 1015.7 |
| 20260510014301 | -23 | 0 | 0.0 | 0.0 | 5.64 | 0.00 | 0.00 | 81 | 1015.7 |
| 20260510013801 | -33 | 347 | 0.0 | 1.7 | 5.64 | 0.00 | 0.00 | 79 | 1015.4 |
| 20260510013301 | -17 | 359 | 0.0 | 2.6 | 5.64 | 0.00 | 0.00 | 77 | 1015.2 |
| 20260510012801 | -20 | 290 | 0.9 | 2.6 | 5.64 | 0.00 | 0.00 | 75 | 1015.0 |
| 20260510012306 | -32 | 290 | 0.9 | 5.2 | 5.64 | 0.00 | 0.00 | 74 | 1014.8 |
| 20260510011801 | -19 | 0 | 0.0 | 0.0 | 5.64 | 0.00 | 0.00 | 74 | 1014.8 |
| 20260510011302 | -28 | 0 | 0.0 | 0.0 | 5.64 | 0.00 | 0.00 | 78 | 1014.7 |
| 20260510010801 | -19 | 0 | 0.0 | 0.0 | 5.64 | 0.00 | 0.00 | 86 | 1014.5 |
| 20260510010302 | -24 | 0 | 0.0 | 0.0 | 5.64 | 0.00 | 0.00 | 89 | 1014.4 |
| 20260510005801 | -29 | 0 | 0.0 | 0.0 | 5.64 | 0.00 | 0.00 | 90 | 1014.2 |
| 20260510005301 | -28 | 0 | 0.0 | 0.0 | 5.64 | 0.00 | 0.00 | 90 | 1014.0 |
| 20260510004803 | -23 | 0 | 0.0 | 0.0 | 5.64 | 0.00 | 0.00 | 90 | 1013.8 |
| 20260510004524 | -20 | 0 | 0.0 | 0.0 | 5.64 | 0.00 | 0.00 | 90 | 1013.8 |
| 20260510004301 | -20 | 0 | 0.0 | 0.0 | 5.64 | 0.00 | 0.00 | 90 | 1013.8 |
| 20260510003801 | -14 | 0 | 0.0 | 0.0 | 5.64 | 0.00 | 0.00 | 89 | 1013.6 |
| 20260510003301 | -16 | 0 | 0.0 | 0.0 | 5.64 | 0.00 | 0.00 | 90 | 1013.4 |
| 20260510002802 | -16 | 0 | 0.0 | 0.0 | 5.64 | 0.00 | 0.00 | 90 | 1013.4 |
| 20260510002301 | -11 | 0 | 0.0 | 0.0 | 5.64 | 0.00 | 0.00 | 90 | 1013.5 |
| 20260510001801 | -20 | 0 | 0.0 | 0.0 | 5.64 | 0.00 | 0.00 | 90 | 1013.4 |
| 20260510001301 | -14 | 0 | 0.0 | 0.0 | 5.64 | 0.00 | 0.00 | 90 | 1013.4 |
| 20260510000801 | -15 | 0 | 0.0 | 0.0 | 5.64 | 0.00 | 0.00 | 89 | 1013.3 |
| 20260510000304 | -1 | 0 | 0.0 | 0.0 | 5.64 | 0.00 | 0.00 | 89 | 1013.2 |
| 20260509235801 | -8 | 0 | 0.0 | 0.0 | 5.64 | 0.00 | 0.00 | 90 | 1013.2 |
| 20260509235306 | -4 | 0 | 0.0 | 0.0 | 5.64 | 0.00 | 0.00 | 89 | 1013.2 |
| 20260509234801 | -14 | 0 | 0.0 | 0.0 | 5.64 | 0.00 | 0.00 | 89 | 1013.1 |
| 20260509234302 | -15 | 0 | 0.0 | 0.0 | 5.64 | 0.00 | 0.00 | 90 | 1013.0 |
| 20260509233801 | -15 | 0 | 0.0 | 0.0 | 5.64 | 0.00 | 0.00 | 89 | 1012.8 |
| 20260509233302 | -15 | 0 | 0.0 | 0.0 | 5.64 | 0.00 | 0.00 | 88 | 1012.9 |
| 20260509232802 | -16 | 0 | 0.0 | 0.0 | 5.64 | 0.00 | 0.00 | 87 | 1012.7 |
| 20260509232305 | -16 | 0 | 0.0 | 0.0 | 5.64 | 0.00 | 0.00 | 87 | 1012.7 |
| 20260509231802 | -10 | 0 | 0.0 | 0.0 | 5.64 | 0.00 | 0.00 | 87 | 1012.7 |
| 20260509231333 | -13 | 0 | 0.0 | 0.0 | 5.64 | 0.00 | 0.00 | 87 | 1012.6 |
| 20260509231302 | -13 | 0 | 0.0 | 0.0 | 5.64 | 0.00 | 0.00 | 87 | 1012.6 |
| 20260509230802 | -13 | 0 | 0.0 | 0.0 | 5.64 | 0.00 | 0.00 | 88 | 1012.5 |
| 20260509230301 | -13 | 0 | 0.0 | 0.0 | 5.64 | 0.00 | 0.00 | 88 | 1012.4 |
| 20260509225802 | -6 | 0 | 0.0 | 0.0 | 5.64 | 0.00 | 0.00 | 89 | 1012.4 |
| 20260509225305 | -13 | 0 | 0.0 | 0.0 | 5.64 | 0.00 | 0.00 | 90 | 1012.2 |
| 20260509224802 | -17 | 0 | 0.0 | 0.0 | 5.64 | 0.00 | 0.00 | 89 | 1012.2 |
| 20260509224302 | -16 | 0 | 0.0 | 0.0 | 5.64 | 0.00 | 0.00 | 90 | 1012.2 |
| 20260509223802 | -15 | 0 | 0.0 | 0.0 | 5.64 | 0.00 | 0.00 | 91 | 1012.1 |
| 20260509223302 | -12 | 0 | 0.0 | 0.0 | 5.64 | 0.00 | 0.00 | 90 | 1012.0 |
| 20260509222802 | -17 | 0 | 0.0 | 0.0 | 5.64 | 0.00 | 0.00 | 89 | 1012.0 |
| 20260509222306 | -15 | 0 | 0.0 | 0.0 | 5.64 | 0.00 | 0.00 | 90 | 1012.0 |
| 20260509221802 | -14 | 0 | 0.0 | 0.0 | 5.64 | 0.00 | 0.00 | 90 | 1012.1 |
| 20260509221302 | -14 | 0 | 0.0 | 0.0 | 5.64 | 0.00 | 0.00 | 90 | 1012.1 |
| 20260509220802 | -16 | 0 | 0.0 | 0.0 | 5.64 | 0.00 | 0.00 | 88 | 1012.0 |
| 20260509220302 | -16 | 0 | 0.0 | 0.0 | 5.64 | 0.00 | 0.00 | 89 | 1011.9 |
| 20260509215802 | -16 | 0 | 0.0 | 0.0 | 5.64 | 0.00 | 0.00 | 89 | 1011.8 |
| 20260509215305 | -7 | 0 | 0.0 | 0.0 | 5.64 | 0.00 | 0.00 | 91 | 1011.8 |
| 20260509214803 | -6 | 290 | 0.9 | 6.1 | 5.64 | 0.00 | 0.00 | 91 | 1011.9 |
| 20260509214303 | -5 | 0 | 0.0 | 0.0 | 5.64 | 0.00 | 0.00 | 91 | 1012.0 |
| 20260509213802 | -6 | 0 | 0.0 | 0.0 | 5.64 | 0.00 | 0.00 | 90 | 1011.9 |
| 20260509213303 | -5 | 0 | 0.0 | 0.0 | 5.64 | 0.00 | 0.00 | 91 | 1011.9 |
| 20260509212802 | -5 | 0 | 0.0 | 0.0 | 5.64 | 0.00 | 0.00 | 90 | 1011.9 |
| 20260509212305 | 16 | 0 | 0.0 | 0.0 | 5.64 | 0.00 | 0.00 | 92 | 1011.9 |
| 20260509211802 | 16 | 0 | 0.0 | 0.0 | 5.64 | 0.00 | 0.00 | 97 | 1011.9 |
| 20260509211304 | 24 | 273 | 0.9 | 9.6 | 5.64 | 0.00 | 0.00 | 98 | 1012.0 |
| 20260509210804 | -4 | 280 | 0.0 | 3.5 | 5.64 | 0.00 | 0.00 | 99 | 1011.8 |
| 20260509210302 | -3 | 0 | 0.0 | 0.0 | 5.64 | 0.00 | 0.00 | 98 | 1011.9 |
| 20260509205802 | 19 | 0 | 0.0 | 0.0 | 5.64 | 0.00 | 0.00 | 98 | 1012.2 |
| 20260509205306 | 20 | 0 | 0.0 | 0.0 | 5.64 | 0.00 | 0.00 | 98 | 1012.3 |
| 20260509204802 | 32 | 252 | 9.6 | 17.4 | 5.64 | 0.00 | 0.00 | 98 | 1012.5 |
| 20260509204302 | 55 | 359 | 0.9 | 6.1 | 5.64 | 0.00 | 0.00 | 96 | 1012.6 |
| 20260509203802 | 57 | 0 | 0.0 | 0.0 | 5.64 | 0.00 | 0.00 | 96 | 1012.1 |
| 20260509203302 | 56 | 89 | 16.5 | 26.9 | 5.64 | 0.00 | 0.00 | 90 | 1012.1 |
| 20260509202802 | 54 | 359 | 15.6 | 23.5 | 5.64 | 0.00 | 0.00 | 82 | 1011.5 |
| 20260509202306 | 53 | 211 | 12.2 | 26.1 | 5.64 | 0.00 | 0.00 | 81 | 1011.5 |
| 20260509201803 | 48 | 359 | 15.6 | 25.2 | 5.64 | 0.00 | 0.00 | 80 | 1011.5 |
| 20260509201302 | 48 | 125 | 17.4 | 24.3 | 5.64 | 0.00 | 0.00 | 84 | 1011.4 |
| 20260509200802 | 56 | 359 | 7.8 | 25.2 | 5.64 | 0.00 | 0.00 | 83 | 1011.2 |
| 20260509200302 | 58 | 359 | 7.8 | 25.2 | 5.64 | 0.00 | 0.00 | 81 | 1011.5 |
| 20260509195802 | 59 | 332 | 13.0 | 22.6 | 5.64 | 0.00 | 0.00 | 83 | 1011.8 |
| 20260509195306 | 47 | 203 | 17.4 | 28.7 | 5.64 | 0.00 | 0.00 | 84 | 1011.8 |
| 20260509194802 | 47 | 218 | 16.5 | 21.7 | 5.64 | 0.00 | 0.00 | 86 | 1011.8 |
| 20260509194302 | 47 | 8 | 11.3 | 23.5 | 5.64 | 0.00 | 0.00 | 88 | 1011.8 |
| 20260509193802 | 47 | 225 | 14.8 | 24.3 | 5.64 | 0.00 | 0.00 | 88 | 1012.0 |
| 20260509193302 | -21 | 359 | 9.6 | 22.6 | 5.64 | 0.00 | 0.00 | 90 | 1012.1 |
| 20260509192802 | -22 | 188 | 10.4 | 21.7 | 5.64 | 0.00 | 0.00 | 91 | 1012.0 |
| 20260509192305 | -21 | 0 | 0.0 | 0.0 | 5.64 | 0.00 | 0.00 | 90 | 1012.2 |
| 20260509191802 | -15 | 179 | 12.2 | 20.0 | 5.64 | 0.00 | 0.00 | 89 | 1012.3 |
| 20260509191302 | -17 | 221 | 14.8 | 21.7 | 5.64 | 0.00 | 0.00 | 92 | 1012.5 |
| 20260509190802 | 19 | 238 | 10.4 | 17.4 | 5.64 | 0.00 | 0.00 | 92 | 1012.6 |
| 20260509190303 | -24 | 0 | 0.0 | 0.0 | 5.64 | 0.00 | 0.00 | 93 | 1012.4 |
| 20260509185802 | 27 | 208 | 9.6 | 20.0 | 5.64 | 0.00 | 0.00 | 92 | 1012.5 |
| 20260509185306 | -27 | 0 | 0.0 | 0.0 | 5.64 | 0.00 | 0.00 | 91 | 1012.8 |
| 20260509184802 | -15 | 257 | 14.8 | 24.3 | 5.64 | 0.00 | 0.00 | 87 | 1012.7 |
| 20260509184303 | -21 | 249 | 5.2 | 18.2 | 5.64 | 0.00 | 0.00 | 77 | 1013.0 |
| 20260509183803 | -27 | 201 | 9.6 | 21.7 | 5.64 | 0.00 | 0.00 | 78 | 1013.2 |
| 20260509183302 | -23 | 207 | 0.9 | 9.6 | 5.64 | 0.00 | 0.00 | 75 | 1013.1 |
| 20260509182802 | -21 | 0 | 0.0 | 0.0 | 5.64 | 0.00 | 0.00 | 77 | 1013.1 |
| 20260509182306 | -20 | 0 | 0.0 | 0.0 | 5.64 | 0.00 | 0.00 | 75 | 1013.2 |
| 20260509181803 | -6 | 0 | 0.0 | 0.0 | 5.64 | 0.00 | 0.00 | 77 | 1013.3 |
| 20260509181303 | 59 | 0 | 0.0 | 0.0 | 5.64 | 0.00 | 0.00 | 77 | 1013.3 |
| 20260509180802 | -9 | 0 | 0.0 | 0.0 | 5.64 | 0.00 | 0.00 | 78 | 1013.2 |
| 20260509180302 | -8 | 0 | 0.0 | 0.0 | 5.64 | 0.00 | 0.00 | 77 | 1013.4 |
| 20260509175803 | -8 | 0 | 0.0 | 0.0 | 5.67 | 0.00 | 0.00 | 75 | 1013.4 |
| 20260509175306 | 3 | 0 | 0.0 | 0.0 | 5.64 | 0.00 | 0.00 | 73 | 1013.2 |
| 20260509174802 | 4 | 0 | 0.0 | 0.0 | 5.64 | 0.00 | 0.00 | 70 | 1013.2 |
| 20260509174302 | 10 | 205 | 5.2 | 14.8 | 5.64 | 0.00 | 0.00 | 73 | 1013.2 |
| 20260509173803 | 6 | 159 | 9.6 | 16.5 | 5.64 | 0.00 | 0.00 | 71 | 1013.1 |
| 20260509173302 | -27 | 359 | 10.4 | 17.4 | 5.64 | 0.00 | 0.00 | 72 | 1013.4 |
| 20260509172802 | -32 | 180 | 2.6 | 17.4 | 5.64 | 0.00 | 0.00 | 73 | 1013.7 |
| 20260509171303 | -32 | 195 | 1.7 | 12.2 | 5.64 | 0.00 | 0.00 | 72 | 1013.8 |
| 20260509170802 | -42 | 200 | 0.9 | 6.1 | 5.64 | 0.00 | 0.00 | 76 | 1013.8 |
| 20260509170303 | -38 | 0 | 0.0 | 0.0 | 5.64 | 0.00 | 0.00 | 77 | 1013.9 |
| 20260509165802 | -41 | 0 | 0.0 | 0.0 | 5.64 | 0.00 | 0.00 | 77 | 1013.9 |
| 20260509165306 | -35 | 0 | 0.0 | 0.0 | 5.64 | 0.00 | 0.00 | 78 | 1014.2 |
| 20260509164803 | -42 | 0 | 0.0 | 0.0 | 5.64 | 0.00 | 0.00 | 80 | 1014.2 |
| 20260509164303 | -44 | 0 | 0.0 | 0.0 | 5.64 | 0.00 | 0.00 | 80 | 1014.5 |
| 20260509163803 | -17 | 184 | 2.6 | 9.6 | 5.64 | 0.00 | 0.00 | 85 | 1014.9 |
| 20260509163302 | -26 | 0 | 0.0 | 0.0 | 5.64 | 0.00 | 0.00 | 88 | 1015.1 |
| 20260509162803 | -26 | 0 | 0.0 | 0.0 | 5.64 | 0.00 | 0.00 | 84 | 1015.3 |
| 20260509162306 | -27 | 0 | 0.0 | 0.0 | 5.64 | 0.00 | 0.00 | 85 | 1015.5 |
| 20260509161803 | -24 | 0 | 0.0 | 0.0 | 5.64 | 0.00 | 0.00 | 85 | 1015.5 |
| 20260509161303 | -28 | 0 | 0.0 | 0.0 | 5.64 | 0.00 | 0.00 | 84 | 1015.6 |
| 20260509160804 | -30 | 0 | 0.0 | 0.0 | 5.64 | 0.00 | 0.00 | 83 | 1015.5 |
| 20260509160303 | -22 | 0 | 0.0 | 0.0 | 5.64 | 0.00 | 0.00 | 84 | 1015.6 |
| 20260509155803 | -21 | 256 | 2.6 | 12.2 | 5.64 | 0.00 | 0.00 | 85 | 1015.7 |
| 20260509155306 | -25 | 0 | 0.0 | 0.0 | 5.64 | 0.00 | 0.00 | 90 | 1015.5 |
| 20260509154803 | -7 | 0 | 0.0 | 0.0 | 5.64 | 0.00 | 0.00 | 87 | 1015.5 |
| 20260509154303 | -12 | 283 | 0.9 | 7.8 | 5.64 | 0.00 | 0.00 | 91 | 1015.4 |
| 20260509153803 | -6 | 0 | 0.0 | 0.0 | 5.64 | 0.00 | 0.00 | 91 | 1015.4 |
| 20260509153303 | 7 | 0 | 0.0 | 0.0 | 5.64 | 0.00 | 0.00 | 91 | 1015.5 |
| 20260509152803 | 25 | 0 | 0.0 | 0.0 | 5.64 | 0.00 | 0.00 | 91 | 1015.6 |
| 20260509152306 | 0 | 250 | 10.4 | 17.4 | 5.64 | 0.00 | 0.00 | 91 | 1015.7 |
| 20260509151804 | -6 | 198 | 11.3 | 18.2 | 5.64 | 0.00 | 0.00 | 90 | 1015.6 |
| 20260509151303 | -7 | 0 | 0.0 | 0.0 | 5.64 | 0.00 | 0.00 | 91 | 1015.4 |
| 20260509150803 | -9 | 0 | 0.0 | 0.0 | 5.64 | 0.00 | 0.00 | 94 | 1015.5 |
| 20260509150303 | -7 | 222 | 2.6 | 10.4 | 5.64 | 0.00 | 0.00 | 95 | 1015.6 |
| 20260509145804 | -6 | 211 | 5.2 | 13.0 | 5.64 | 0.00 | 0.00 | 96 | 1015.7 |
| 20260509145306 | -6 | 214 | 0.0 | 6.1 | 5.64 | 0.00 | 0.00 | 97 | 1015.9 |
| 20260509144803 | -7 | 198 | 7.0 | 16.5 | 5.64 | 0.00 | 0.00 | 98 | 1015.9 |
| 20260509144303 | -4 | 0 | 0.0 | 0.0 | 5.64 | 0.00 | 0.00 | 99 | 1015.7 |
| 20260509143803 | -4 | 0 | 0.0 | 0.0 | 5.64 | 0.00 | 0.00 | 98 | 1015.8 |
| 20260509143303 | -3 | 0 | 0.0 | 0.0 | 5.64 | 0.00 | 0.00 | 100 | 1015.9 |
| 20260509142805 | -3 | 0 | 0.0 | 0.0 | 5.64 | 0.00 | 0.00 | 100 | 1015.9 |
| 20260509142306 | -3 | 0 | 0.0 | 0.0 | 5.64 | 0.00 | 0.00 | 100 | 1015.8 |
| 20260509141803 | 0 | 0 | 0.0 | 0.0 | 5.64 | 0.00 | 0.00 | 100 | 1015.9 |
| 20260509141303 | 21 | 0 | 0.0 | 0.0 | 5.64 | 0.00 | 0.00 | 100 | 1015.9 |
| 20260509140803 | -2 | 0 | 0.0 | 0.0 | 5.64 | 0.00 | 0.00 | 100 | 1016.0 |
| 20260509140303 | -3 | 0 | 0.0 | 0.0 | 5.64 | 0.00 | 0.00 | 100 | 1016.3 |
| 20260509135803 | -3 | 0 | 0.0 | 0.0 | 5.64 | 0.00 | 0.00 | 100 | 1015.8 |
| 20260509135306 | -4 | 0 | 0.0 | 0.0 | 5.64 | 0.00 | 0.00 | 100 | 1016.2 |
| 20260509134803 | -3 | 0 | 0.0 | 0.0 | 5.64 | 0.00 | 0.00 | 100 | 1016.0 |
| 20260509134308 | -2 | 0 | 0.0 | 0.0 | 5.64 | 0.00 | 0.00 | 100 | 1015.8 |
| 20260509133803 | -2 | 0 | 0.0 | 0.0 | 5.64 | 0.00 | 0.00 | 100 | 1015.9 |
| 20260509133303 | -2 | 0 | 0.0 | 0.0 | 5.64 | 0.00 | 0.00 | 100 | 1016.1 |
| 20260509132804 | -7 | 0 | 0.0 | 0.0 | 5.64 | 0.00 | 0.00 | 100 | 1016.0 |
| 20260509132306 | -7 | 0 | 0.0 | 0.0 | 5.64 | 0.00 | 0.00 | 100 | 1016.1 |
| 20260509131803 | -5 | 0 | 0.0 | 0.0 | 5.64 | 0.00 | 0.00 | 100 | 1016.1 |
| 20260509131303 | -6 | 0 | 0.0 | 0.0 | 5.64 | 0.00 | 0.00 | 98 | 1016.1 |
| 20260509130803 | -5 | 0 | 0.0 | 0.0 | 5.64 | 0.00 | 0.00 | 99 | 1016.1 |
| 20260509130304 | -4 | 0 | 0.0 | 0.0 | 5.64 | 0.00 | 0.00 | 98 | 1016.2 |
| 20260509125805 | -2 | 0 | 0.0 | 0.0 | 5.64 | 0.00 | 0.00 | 99 | 1016.1 |
| 20260509125308 | -5 | 0 | 0.0 | 0.0 | 5.64 | 0.00 | 0.00 | 99 | 1016.1 |
| 20260509124803 | -6 | 0 | 0.0 | 0.0 | 5.64 | 0.00 | 0.00 | 99 | 1016.2 |
| 20260509124303 | -6 | 0 | 0.0 | 0.0 | 5.64 | 0.00 | 0.00 | 100 | 1016.5 |
| 20260509123803 | -6 | 0 | 0.0 | 0.0 | 5.64 | 0.00 | 0.00 | 100 | 1016.5 |
| 20260509123303 | -6 | 0 | 0.0 | 0.0 | 5.64 | 0.00 | 0.00 | 100 | 1016.2 |
| 20260509122804 | -7 | 0 | 0.0 | 0.0 | 5.64 | 0.00 | 0.00 | 100 | 1016.4 |
| 20260509122306 | -7 | 0 | 0.0 | 0.0 | 5.64 | 0.00 | 0.00 | 100 | 1016.4 |
| 20260509121804 | -5 | 0 | 0.0 | 0.0 | 5.64 | 0.00 | 0.00 | 100 | 1016.5 |